Detroit, MI

1:51 PM EST on December 08, 2016 (GMT -0500)
Detroit City

Weather History for KDET - May, 2014

Change the Weather History Date:

Thursday, May 1, 2014

  Actual Average Record
Temperature  
Mean Temperature 50 °F -  
Max Temperature 57 °F 64 °F 82 °F (1957)
Min Temperature 46 °F 44 °F 30 °F (1978)
Degree Days  
Heating Degree Days 14    
Moisture  
Dew Point 39 °F    
Average Humidity 62    
Maximum Humidity 88    
Minimum Humidity 44    
Precipitation  
Precipitation 0.00 in - - ()
Sea Level Pressure  
Sea Level Pressure 29.76 in    
Wind  
Wind Speed 11 mph (WSW)    
Max Wind Speed 22 mph    
Max Gust Speed 32 mph    
Visibility 9 miles    
Events Rain    
Averages and records for this station are not official NWS values.
T = Trace of Precipitation, MM = Missing Value Source: NWS Daily Summary

Daily Weather History Graph

Daily Weather History Graph

Search for Another Location

Airport or City:

Trip Planner

Search our weather history database for the weather conditions in past years. The results will help you decide how hot, cold, wet, or windy it might be!

Date:

Astronomy

May. 01, 2014 Rise Set
Actual Time 6:27 AM EDT 8:31 PM EDT
Civil Twilight 5:56 AM EDT 9:02 PM EDT
Nautical Twilight 5:18 AM EDT 9:40 PM EDT
Astronomical Twilight 4:37 AM EDT 10:21 PM EDT
Moon 8:12 AM EDT (5/1) 11:05 PM EDT (5/1)
Length of Visible Light 15h 06m
Length of Day
14h 04m
Waxing Crescent, 6% of the Moon is Illuminated
May 1
Waxing Crescent
May 6
First Quarter
May 14
Full
May 21
Last Quarter
May 28
New

Hourly Weather History & Observations

Time (EDT) Temp. Dew Point Humidity Pressure Visibility Wind Dir Wind Speed Gust Speed Precip Events Conditions
12:28 AM 54.0 °F 50.0 °F 86% 29.75 in 5.0 mi SSW 3.5 mph - N/A   Overcast
12:51 AM 53.6 °F 50.0 °F 88% 29.75 in 5.0 mi SW 3.5 mph - N/A   Scattered Clouds
12:53 AM 54.0 °F 50.0 °F 86% 29.75 in 5.0 mi SW 4.6 mph - N/A   Scattered Clouds
1:53 AM 55.0 °F 48.9 °F 80% 29.76 in 9.0 mi WSW 10.4 mph - N/A   Partly Cloudy
2:31 AM 55.0 °F 45.0 °F 69% 29.76 in 10.0 mi WSW 15.0 mph 20.7 mph N/A   Overcast
2:53 AM 54.0 °F 45.0 °F 72% 29.75 in 10.0 mi WSW 15.0 mph - N/A   Overcast
3:53 AM 52.0 °F 44.1 °F 74% 29.76 in 10.0 mi West 11.5 mph - N/A   Overcast
4:38 AM 51.1 °F 39.9 °F 66% 29.76 in 10.0 mi West 13.8 mph - N/A   Overcast
4:53 AM 51.1 °F 39.9 °F 66% 29.77 in 10.0 mi West 12.7 mph 19.6 mph N/A   Overcast
5:53 AM 50.0 °F 37.0 °F 61% 29.78 in 10.0 mi West 11.5 mph 19.6 mph N/A   Overcast
6:53 AM 46.9 °F 35.1 °F 63% 29.80 in 10.0 mi West 8.1 mph - N/A   Partly Cloudy
7:53 AM 48.9 °F 37.0 °F 64% 29.79 in 10.0 mi SW 8.1 mph - N/A   Overcast
8:53 AM 51.1 °F 37.0 °F 59% 29.80 in 10.0 mi SW 11.5 mph 21.9 mph N/A   Mostly Cloudy
9:53 AM 53.1 °F 37.9 °F 57% 29.79 in 10.0 mi SW 13.8 mph - N/A   Scattered Clouds
10:53 AM 55.9 °F 37.9 °F 51% 29.76 in 10.0 mi SW 13.8 mph - N/A   Mostly Cloudy
11:53 AM 54.0 °F 36.0 °F 51% 29.76 in 10.0 mi SSW 16.1 mph 27.6 mph N/A   Overcast
12:53 PM 55.9 °F 34.0 °F 44% 29.75 in 10.0 mi West 12.7 mph 24.2 mph N/A   Overcast
1:53 PM 55.0 °F 34.0 °F 45% 29.74 in 10.0 mi WSW 19.6 mph 26.5 mph N/A   Overcast
2:53 PM 55.0 °F 34.0 °F 45% 29.75 in 10.0 mi WSW 17.3 mph 29.9 mph N/A   Overcast
3:53 PM 55.9 °F 35.1 °F 45% 29.74 in 10.0 mi SW 20.7 mph 28.8 mph N/A   Overcast
4:53 PM 54.0 °F 35.1 °F 49% 29.75 in 10.0 mi SW 16.1 mph 27.6 mph N/A   Overcast
5:53 PM 54.0 °F 35.1 °F 49% 29.76 in 10.0 mi WSW 18.4 mph 28.8 mph N/A   Overcast
6:53 PM 54.0 °F 36.0 °F 51% 29.76 in 10.0 mi WSW 21.9 mph 32.2 mph N/A   Mostly Cloudy
7:53 PM 53.1 °F 36.0 °F 52% 29.77 in 10.0 mi WSW 20.7 mph 29.9 mph N/A   Scattered Clouds
8:53 PM 52.0 °F 37.0 °F 57% 29.77 in 10.0 mi WSW 15.0 mph 23.0 mph N/A   Overcast
9:53 PM 51.1 °F 37.9 °F 61% 29.78 in 10.0 mi WSW 18.4 mph 24.2 mph 0.00 in   Overcast
10:32 PM 50.0 °F 39.0 °F 66% 29.77 in 10.0 mi WSW 18.4 mph 28.8 mph 0.00 in Rain Light Rain
10:53 PM 50.0 °F 39.0 °F 66% 29.77 in 10.0 mi WSW 20.7 mph 27.6 mph 0.00 in   Overcast
11:53 PM 48.9 °F 41.0 °F 74% 29.77 in 10.0 mi WSW 12.7 mph - 0.00 in Rain Light Rain